sat.trackr.live / text

‹ back to catalog

STARLINK-32277

NORAD 60376 · 2024-138X

PAYLOAD ACTIVE UNKNOWN

§ Identity

Operator
Country
US
Launch date
2024-08-04
Launch site
AFWTR
Launch vehicle
Mass (kg)
RCS (m²)

Purposes: comms

External: N2YO · Heavens-Above · Gunter

§ Orbital elements

Epoch: 2026-09-21T20:12:59.948064Z

Period
93.85 min
Inclination
53.1614°
Eccentricity
0.0001605
Mean motion
15.34384578 rev/d
Perigee alt
461.7 km
Apogee alt
463.8 km
Semi-major
6,840.9 km
B*
2.1363e-5
RAAN
117.4868°
Arg perigee
96.3387°
Mean anomaly
263.7798°
Rev number
12,067

§ Raw data

STARLINK-322771 60376U 24138X   26264.84236051  .00000345  00000+0  21363-4 0  99992 60376  53.1614 117.4868 0001605  96.3387 263.7798 15.34384578120673

JSON: /api/v1/satellites/60376 · /tle

For live sub-satellite position, see the globe view (requires WebGL).

§ Visibility from observer

Set your observer location to see the next 7 days of passes ≥ 10°. The values pass through the URL so the page stays shareable.

No JS? Fill the form by hand. The geolocation button needs JavaScript.